Big Delta, AK

5:46 AM AKDT on September 22, 2017 (GMT -0800)
Allen Army Air Field

Weather History for PABI - July, 2013

Change the Weather History Date:

Sunday, July 7, 2013

  Actual Average Record
Temperature  
Mean Temperature 62 °F -  
Max Temperature 66 °F 68 °F 81 °F (2015)
Min Temperature 57 °F 50 °F 41 °F (2001)
Degree Days  
Heating Degree Days 4    
Growing Degree Days 12 (Base 50)    
Moisture  
Dew Point 38 °F    
Average Humidity 39    
Maximum Humidity 49    
Minimum Humidity 24    
Precipitation  
Precipitation 0.00 in - - ()
Sea Level Pressure  
Sea Level Pressure 29.64 in    
Wind  
Wind Speed 17 mph (South)    
Max Wind Speed 25 mph    
Max Gust Speed 40 mph    
Visibility 10 miles    
Events      
Averages and records for this station are not official NWS values.
T = Trace of Precipitation, MM = Missing Value Source: NWS Daily Summary

Daily Weather History Graph

Daily Weather History Graph

Search for Another Location

Airport or City:

Trip Planner

Search our weather history database for the weather conditions in past years. The results will help you decide how hot, cold, wet, or windy it might be!

Date:

Astronomy

Jul. 07, 2013 Rise Set
Actual Time 3:38 AM AKDT 11:55 PM AKDT
Civil Twilight Sun does not set Sun does not set
Nautical Twilight Sun does not set Sun does not set
Astronomical Twilight Sun does not set Sun does not set
Moon 4:07 AM AKDT (7/7) 10:30 PM AKDT (7/7)
Length of Visible Light 24h 00m
Length of Day
20h 17m
Waning Crescent, 0% of the Moon is Illuminated
Jul 7
Waning Crescent
Jul 7
New
Jul 15
First Quarter
Jul 22
Full
Jul 29
Last Quarter

Hourly Weather History & Observations

Time (AKDT) Temp. Dew Point Humidity Pressure Visibility Wind Dir Wind Speed Gust Speed Precip Events Conditions
12:53 AM 62.1 °F 37.9 °F 41% 29.75 in 10.0 mi South 20.7 mph 29.9 mph N/A   Partly Cloudy
1:53 AM 61.0 °F 37.0 °F 41% 29.75 in 10.0 mi South 20.7 mph 35.7 mph N/A   Overcast
2:53 AM 59.0 °F 37.0 °F 44% 29.75 in 10.0 mi South 6.9 mph - N/A   Scattered Clouds
3:53 AM 57.9 °F 37.0 °F 46% 29.75 in 10.0 mi South 17.3 mph - N/A   Scattered Clouds
4:53 AM 57.9 °F 36.0 °F 44% 29.73 in 10.0 mi SSE 16.1 mph 23.0 mph N/A   Overcast
5:53 AM 60.1 °F 37.0 °F 42% 29.71 in 10.0 mi South 19.6 mph 29.9 mph N/A   Mostly Cloudy
6:53 AM 60.1 °F 37.9 °F 44% 29.70 in 10.0 mi SE 8.1 mph - N/A   Mostly Cloudy
7:53 AM 59.0 °F 39.9 °F 49% 29.68 in 10.0 mi East 12.7 mph - N/A   Mostly Cloudy
8:53 AM 64.0 °F 37.0 °F 37% 29.65 in 10.0 mi South 23.0 mph 32.2 mph N/A   Mostly Cloudy
9:05 AM 64.4 °F 37.4 °F 37% 29.66 in 10.0 mi South 25.3 mph 34.5 mph N/A   Mostly Cloudy
9:53 AM 64.0 °F 37.0 °F 37% 29.65 in 10.0 mi South 24.2 mph 33.4 mph N/A   Mostly Cloudy
10:53 AM 64.0 °F 37.9 °F 38% 29.65 in 10.0 mi SSE 13.8 mph - N/A   Mostly Cloudy
11:53 AM 64.0 °F 39.0 °F 40% 29.64 in 10.0 mi SE 9.2 mph - N/A   Overcast
12:53 PM 64.0 °F 39.0 °F 40% 29.64 in 10.0 mi South 15.0 mph 21.9 mph N/A   Overcast
1:53 PM 63.0 °F 37.9 °F 40% 29.64 in 10.0 mi South 12.7 mph - N/A   Overcast
2:53 PM 64.0 °F 39.0 °F 40% 29.61 in 10.0 mi South 16.1 mph - N/A   Overcast
3:53 PM 63.0 °F 37.9 °F 40% 29.60 in 10.0 mi South 17.3 mph 23.0 mph N/A   Mostly Cloudy
4:53 PM 64.0 °F 39.0 °F 40% 29.59 in 10.0 mi South 18.4 mph 33.4 mph N/A   Mostly Cloudy
5:53 PM 64.9 °F 37.9 °F 37% 29.57 in 10.0 mi South 18.4 mph 31.1 mph N/A   Mostly Cloudy
6:53 PM 66.0 °F 37.0 °F 34% 29.56 in 10.0 mi South 25.3 mph 40.3 mph N/A   Mostly Cloudy
7:53 PM 66.0 °F 39.0 °F 37% 29.55 in 10.0 mi South 25.3 mph 34.5 mph N/A   Mostly Cloudy
8:53 PM 64.9 °F 39.0 °F 39% 29.55 in 10.0 mi SSW 17.3 mph 25.3 mph N/A   Mostly Cloudy
9:53 PM 64.9 °F 37.0 °F 36% 29.56 in 10.0 mi SSW 13.8 mph - N/A   Clear
10:53 PM 62.1 °F 37.9 °F 41% 29.57 in 10.0 mi SSW 16.1 mph - N/A   Clear
11:53 PM 60.1 °F 37.9 °F 44% 29.59 in 10.0 mi WSW 11.5 mph - N/A   Clear